EW0349 Weather Reports


time (UTC)temp
C
wind
direction
speed
KPH
gust
KPH
rain 1hr
cm
rain 24hr
cm
rain mn
cm
humidity
%
barometer
mb
20260906110011 12 302 0.0 1.6 0.18 0.20 0.18 100 1015.2
20260906104507 12 302 0.0 0.0 0.00 0.03 0.00 100 1015.3
20260906103008 12 302 0.0 0.0 0.00 0.03 0.00 100 1015.1
20260906101558 12 302 0.0 1.6 0.00 0.03 0.00 100 1014.9
20260906100054 12 302 0.0 3.2 0.00 0.03 0.00 100 1014.8
20260906094604 12 302 0.0 0.0 0.00 0.03 0.00 100 1015.0
20260906093056 12 302 0.0 0.0 0.00 0.03 0.00 100 1014.8
20260906091540 12 302 0.0 0.0 0.00 0.03 0.00 100 1014.8
20260906090105 12 302 0.0 0.0 0.00 0.03 0.00 100 1014.8
20260906084535 12 302 0.0 0.0 0.00 0.03 0.00 100 1014.9
20260906083036 12 302 0.0 0.0 0.00 0.03 0.00 100 1014.9
20260906081523 12 302 0.0 0.0 0.00 0.03 0.00 100 1014.8
20260906080019 13 302 0.0 0.0 0.00 0.03 0.00 5 1014.8
20260906074531 13 302 0.0 0.0 0.00 0.03 0.00 9 1014.9
20260906073014 13 302 0.0 0.0 0.00 0.03 0.00 10 1015.0
20260906071510 13 302 0.0 0.0 0.00 0.03 0.00 12 1015.1
20260906070008 13 302 0.0 1.6 0.00 0.03 0.03 13 1015.0
20260906064503 13 302 0.0 1.6 0.00 0.03 0.03 13 1015.0
20260906063100 13 302 0.0 1.6 0.00 0.03 0.03 13 1014.8
20260906061604 13 302 0.0 0.0 0.00 0.03 0.03 17 1015.0
20260906060050 13 302 0.0 0.0 0.00 0.03 0.03 22 1015.1
20260906054548 13 302 0.0 0.0 0.00 0.03 0.03 28 1015.2
20260906053052 13 302 0.0 4.8 0.00 0.03 0.03 31 1015.2
20260906051539 13 277 0.0 4.8 0.00 0.03 0.03 32 1015.2
20260906050033 14 323 0.0 3.2 0.00 0.03 0.03 38 1015.2
20260906044528 14 297 0.0 3.2 0.00 0.03 0.03 39 1015.3
20260906043025 14 267 0.0 3.2 0.00 0.03 0.03 40 1015.4
20260906041533 14 266 0.0 6.4 0.00 0.03 0.03 41 1015.5
20260906040015 14 281 0.0 3.2 0.00 0.03 0.03 43 1015.4
20260906034514 14 281 0.0 4.8 0.00 0.03 0.03 45 1015.3
20260906033007 15 281 0.0 3.2 0.00 0.03 0.03 46 1015.2
20260906031502 15 275 0.0 4.8 0.00 0.03 0.03 48 1015.1
20260906030058 15 272 0.0 4.8 0.00 0.03 0.03 54 1015.1
20260906024609 16 272 0.0 4.8 0.00 0.03 0.03 58 1015.1
20260906023100 16 266 0.0 4.8 0.00 0.03 0.03 60 1015.2
20260906021545 16 266 0.0 8.0 0.00 0.03 0.03 61 1015.2
20260906020040 17 276 0.0 6.4 0.00 0.03 0.03 61 1015.0
20260906014545 17 295 0.0 6.4 0.00 0.03 0.03 60 1015.1
20260906013032 18 300 0.0 8.0 0.00 0.03 0.03 59 1015.1
20260906011527 18 290 3.2 9.7 0.00 0.03 0.03 59 1015.1
20260906010052 18 284 0.0 3.2 0.00 0.03 0.03 60 1015.1
20260906004518 18 284 0.0 6.4 0.00 0.03 0.03 59 1015.2
20260906003015 19 286 0.0 4.8 0.00 0.03 0.03 56 1015.1
20260906001510 19 291 0.0 8.0 0.00 0.03 0.03 58 1015.0
20260906000006 19 286 4.8 8.0 0.00 0.03 0.03 55 1014.9
20260905234502 19 279 0.0 8.0 0.00 0.03 0.03 56 1014.9
20260905233057 19 260 3.2 8.0 0.00 0.03 0.03 56 1015.0
20260905231552 19 296 0.0 4.8 0.00 0.03 0.03 57 1015.2
20260905230050 20 204 0.0 6.4 0.00 0.03 0.03 56 1015.3
20260905224546 20 284 1.6 9.7 0.00 0.03 0.03 55 1015.4
20260905223042 19 291 1.6 8.0 0.00 0.03 0.03 55 1015.5
20260905221536 19 288 3.2 11.3 0.00 0.03 0.03 55 1015.6
20260905220029 19 313 1.6 8.0 0.00 0.10 0.03 57 1015.7
20260905214525 19 288 1.6 8.0 0.00 0.10 0.03 57 1015.9
20260905213021 19 267 4.8 11.3 0.00 0.10 0.03 55 1015.8
20260905211534 18 184 1.6 6.4 0.00 0.10 0.03 55 1016.0
20260905210012 18 119 0.0 4.8 0.00 0.13 0.03 54 1016.1
20260905204509 19 76 0.0 3.2 0.00 0.13 0.03 53 1016.2
20260905203003 18 72 0.0 4.8 0.00 0.13 0.03 53 1016.3
20260905201607 17 346 0.0 4.8 0.00 0.13 0.03 53 1016.3
20260905200057 17 273 0.0 6.4 0.00 0.13 0.03 53 1016.5
20260905194550 17 130 0.0 3.2 0.00 0.13 0.03 51 1016.6
20260905193045 17 181 1.6 6.4 0.00 0.13 0.03 51 1016.8
20260905191540 17 180 1.6 4.8 0.00 0.13 0.03 49 1016.9
20260905190037 16 287 1.6 6.4 0.00 0.13 0.03 47 1016.9
20260905184532 16 281 0.0 3.2 0.00 0.13 0.03 44 1017.0
20260905183036 15 281 0.0 3.2 0.00 0.13 0.03 35 1017.0
20260905181522 15 282 0.0 6.4 0.00 0.13 0.03 26 1017.1
20260905180018 15 247 0.0 4.8 0.00 0.13 0.03 16 1017.0
20260905174514 13 242 0.0 6.4 0.00 0.13 0.03 100 1017.1
20260905173009 13 188 0.0 4.8 0.00 0.13 0.03 100 1017.2
20260905171504 13 243 0.0 4.8 0.00 0.13 0.03 100 1017.2
20260905170108 12 245 0.0 6.4 0.00 0.13 0.03 100 1017.1
20260905164603 12 290 0.0 1.6 0.00 0.13 0.03 100 1017.1
20260905163052 12 290 0.0 3.2 0.00 0.13 0.03 100 1017.1
20260905161547 12 290 0.0 1.6 0.00 0.13 0.03 100 1017.1
20260905160042 12 290 0.0 1.6 0.00 0.13 0.03 100 1017.1
20260905154539 12 290 0.0 1.6 0.00 0.13 0.03 100 1017.1
20260905153034 11 290 0.0 1.6 0.00 0.13 0.03 100 1017.1
20260905151535 11 290 0.0 3.2 0.03 0.13 0.03 100 1017.1
20260905150026 11 275 0.0 1.6 0.03 0.18 0.03 100 1017.0
20260905144529 11 214 0.0 0.0 0.03 0.18 0.03 100 1017.1
20260905143016 11 214 0.0 1.6 0.03 0.18 0.03 100 1017.0
20260905141512 11 214 0.0 0.0 0.00 0.15 0.00 100 1017.0
20260905140007 11 214 0.0 0.0 0.00 0.18 0.00 100 1017.0
20260905134503 11 214 0.0 1.6 0.00 0.18 0.00 100 1017.0
20260905133059 11 213 0.0 1.6 0.00 0.18 0.00 100 1016.9
20260905131558 11 213 0.0 3.2 0.00 0.18 0.00 100 1016.8
20260905130049 11 217 0.0 3.2 0.00 0.18 0.00 100 1016.7
20260905124546 11 218 0.0 0.0 0.00 0.18 0.00 100 1016.7
20260905123041 11 218 0.0 0.0 0.00 0.18 0.00 100 1016.6
20260905121542 11 218 0.0 1.6 0.00 0.18 0.00 100 1016.4
20260905120032 11 218 0.0 1.6 0.00 0.18 0.00 100 1016.5
20260905114527 11 213 0.0 0.0 0.00 0.18 0.00 100 1016.6
20260905113023 11 213 0.0 0.0 0.00 0.18 0.00 100 1016.5
20260905111522 11 213 0.0 0.0 0.00 0.18 0.00 100 1016.4